SGE YSSY-YSSY

Flight info

Callsign SGE
Flight time 0h 3m
Altitude 1500
Route ERSK REDF DHH HBB RCB SCG MPSC
Aircraft R66/L-SDE3/L

Departure

Time 2026-05-06 06:32
Airport Sydney Kingsford Smith International Airport (YSSY)

Arrival

Time 2026-05-06 06:35
Airport Sydney Kingsford Smith International Airport (YSSY)
Time Latitude Longitude Altitude Speed Heading
2026-05-06 06:16 -33.94027 151.19062 23 ft 0 kts 139°
2026-05-06 06:30 -33.94028 151.19063 23 ft 0 kts 142°
2026-05-06 06:30 -33.94034 151.19066 48 ft 5 kts 140°
2026-05-06 06:31 -33.94065 151.19095 89 ft 3 kts 102°
2026-05-06 06:31 -33.94063 151.19140 156 ft 8 kts 76°
2026-05-06 06:31 -33.94021 151.19246 265 ft 23 kts 37°
2026-05-06 06:31 -33.93709 151.19336 401 ft 63 kts 13°
2026-05-06 06:32 -33.93242 151.19475 634 ft 74 kts
2026-05-06 06:32 -33.92695 151.19287 775 ft 91 kts 342°
2026-05-06 06:32 -33.92070 151.19023 866 ft 100 kts 345°
2026-05-06 06:32 -33.91350 151.18781 795 ft 114 kts 353°
2026-05-06 06:33 -33.90600 151.18888 837 ft 108 kts 22°
2026-05-06 06:33 -33.89931 151.19259 898 ft 106 kts 31°
2026-05-06 06:33 -33.89311 151.19763 886 ft 112 kts 39°
2026-05-06 06:33 -33.88737 151.20374 895 ft 113 kts 39°
2026-05-06 06:34 -33.88022 151.20558 827 ft 120 kts 341°
2026-05-06 06:34 -33.87356 151.20174 772 ft 103 kts 341°
2026-05-06 06:34 -33.86659 151.19998 752 ft 105 kts 356°
2026-05-06 06:34 -33.85896 151.20025 665 ft 115 kts 14°
2026-05-06 06:35 -33.85413 151.20611 692 ft 97 kts 83°
2026-05-06 06:35 -33.85460 151.21290 721 ft 56 kts 25°
2026-05-06 06:35 -33.85304 151.21002 688 ft 56 kts 275°
2026-05-06 06:35 -33.85452 151.20838 850 ft 30 kts 113°
2026-05-06 06:36 -33.85230 151.21153 646 ft 70 kts 44°
2026-05-06 06:36 -33.85343 151.21609 675 ft 67 kts 173°
2026-05-06 06:36 -33.85365 151.21178 454 ft 84 kts 354°
2026-05-06 06:36 -33.85320 151.21626 434 ft 77 kts 147°
2026-05-06 06:37 -33.85670 151.21883 721 ft 61 kts 151°
2026-05-06 06:37 -33.85927 151.22243 711 ft 77 kts 106°
2026-05-06 06:37 -33.86216 151.22889 750 ft 89 kts 133°
2026-05-06 06:38 -33.86807 151.23169 731 ft 100 kts 172°
2026-05-06 06:38 -33.87401 151.23102 922 ft 89 kts 195°
2026-05-06 06:38 -33.87880 151.22918 938 ft 92 kts 191°
2026-05-06 06:38 -33.87926 151.22901 982 ft 83 kts 197°
2026-05-06 06:39 -33.88477 151.22677 936 ft 85 kts 183°
2026-05-06 06:39 -33.88923 151.22609 959 ft 45 kts 179°
2026-05-06 06:39 -33.89064 151.22585 1056 ft 35 kts 182°
2026-05-06 06:41 -33.89281 151.22544 1116 ft 42 kts 179°
2026-05-06 06:41 -33.89681 151.22489 954 ft 76 kts 186°
2026-05-06 06:41 -33.90272 151.22348 871 ft 97 kts 187°
2026-05-06 06:42 -33.90959 151.22147 844 ft 104 kts 192°
2026-05-06 06:42 -33.91650 151.21903 870 ft 101 kts 193°
2026-05-06 06:42 -33.92356 151.21653 777 ft 111 kts 193°
2026-05-06 06:42 -33.93095 151.21289 675 ft 112 kts 207°
2026-05-06 06:43 -33.93637 151.20659 593 ft 94 kts 232°
2026-05-06 06:43 -33.93828 151.20075 546 ft 56 kts 253°
2026-05-06 06:43 -33.93887 151.19696 399 ft 43 kts 253°
2026-05-06 06:43 -33.93951 151.19380 274 ft 31 kts 248°
2026-05-06 06:44 -33.93999 151.19156 132 ft 24 kts 246°
2026-05-06 06:44 -33.94013 151.19090 64 ft 5 kts 250°
2026-05-06 06:44 -33.94020 151.19062 32 ft 1 kts 307°
2026-05-06 06:44 -33.94024 151.19059 28 ft 0 kts 314°